Regional Weather Roundup
Issued by NWS Portland, ME

Current Version | Previous Version | Text Only | Print | Product List | Glossary Off
Versions: 1 2 3 4 5 6 7 8 9 10 11 12 13 14 15 16 17 18 19 20 21 22 23 24 25 26 27 28 29 30 31 32 33 34 35 36 37 38 39 40 41 42 43 44 45 46 47 48 49 50
306 ASUS41 KGYX 231405 RWRGYX WEATHER ROUNDUP FOR MAINE AND NEW HAMPSHIRE NATIONAL WEATHER SERVICE GRAY ME 1000 AM EDT SUN APR 23 2017 MEZ002-005-006-010-012-015-018-020-021-024-026-027-029-231500- MAINE CITY SKY/WX TMP DP RH WIND PRES REMARKS PORTLAND SUNNY 51 36 56 N10 30.07S SANFORD SUNNY 52 36 54 CALM 30.08R BAR HARBOR CLOUDY 44 39 82 NW8 30.04S WISCASSET MOSUNNY 50 40 68 VRB6 30.07S ROCKLAND CLOUDY 46 40 79 CALM 30.05S FRYEBURG SUNNY 50 35 56 CALM 30.06S LEWISTONAUBURN SUNNY 49 35 58 N7 30.06S AUGUSTA PTSUNNY 49 35 58 VRB6 30.06R WATERVILLE PTSUNNY 47 37 68 N9 30.03R BANGOR CLOUDY 43 38 82 N6 30.05R GREENVILLE N/A 36 35 96 NW7 29.98S MILLINOCKET CLOUDY 39 35 86 W6 30.03S HOULTON CLOUDY 39 34 82 N8 29.99S PRESQUE ISLE CLOUDY 39 34 82 NW8 30.01R FRENCHVILLE CLOUDY 35 31 85 W7 29.97R CARIBOU CLOUDY 39 32 76 W3 29.99R $$ NHZ002-005-008-009-011-012-014-231500- NEW HAMPSHIRE CITY SKY/WX TMP DP RH WIND PRES REMARKS PORTSMOUTH MOSUNNY 52 37 56 N3 30.07S ROCHESTER SUNNY 52 36 54 NW5 30.06S NASHUA SUNNY 51 37 58 NW8 30.09S MANCHESTER SUNNY 53 34 48 N5 30.08R CONCORD SUNNY 53 36 52 NW9 30.08S LACONIA SUNNY 50 34 54 SW8 30.07S PLYMOUTH N/A 51 33 51 W6 30.06F BERLIN SUNNY 46 32 58 VRB6 30.05S WHITEFIELD PTSUNNY 46 34 62 E5 30.07F JAFFREY SUNNY 50 36 58 VRB3 30.08S KEENE SUNNY 50 34 54 N7 30.10F LEBANON SUNNY 51 37 58 VRB5 30.08F MT WASHINGTON MOSUNNY 30 12 47 NW36 N/A WCI 14 $$ VTZ005-007-008-231500- VERMONT CITY SKY/WX TMP DP RH WIND PRES REMARKS ST JOHNSBURY N/A 47 35 63 MISG 30.06F MONTPELIER SUNNY 46 37 71 N5 30.11S BURLINGTON MOSUNNY 50 35 56 CALM 30.09F $$ MAZ007-012-024-CTZ003-RIZ002-NYZ038-NYZ072-231500- SOUTHERN NEW ENGLAND AND NY CITY SKY/WX TMP DP RH WIND PRES REMARKS BOSTON MOSUNNY 51 39 63 NE7 30.10R WORCESTER SUNNY 49 33 54 VRB7 30.08R NANTUCKET PTSUNNY 50 41 71 N7 30.08R PROVIDENCE SUNNY 53 38 56 N9 30.10R HARTFORD MOSUNNY 53 35 50 N5 30.11S ALBANY MOSUNNY 53 35 50 VRB3 30.13S NEW YORK CITY MOSUNNY 54 35 48 NE10 30.12F $$ ANZ081-ANZ082-ANZ150-NHZ014-MEZ023>029-231500- COASTAL MARINE OBSERVATIONS STATION/POSITION TIME TEMP WIND PRES WAVE AIR SEA DIR/SP/G HT/PER (UTC) (F) (DEG/KT/KT) (MB) (FT/S) MOUNT DESERT ROC 1400 39 1017.8R MATINICUS ROCK 1300 39 300/ 6/ 6 1017.2R ISLE OF SHOALS 1300 43 310/ 6/ 6 1018.4R JEFFREYS LEDGE 1306 43 N/A 5/11 CASHES LEDGE BUO 1250 44 42 1017.4 5/10 GEORGES BANK BUO 1250 42 43 1014.7 8/ 6 $$ .............KEY.............. WCI - WIND CHILL TC - TEMPERATURE IN CELSIUS VSB - VISIBILITY IN MILES HX - HEAT INDEX FAIR- INDICATES FEW OR NO CLOUDS BELOW 12,000 FT, WITH NO SIGNIFICANT WEATHER AND/OR OBSTRUCTIONS TO VISIBILITY.

USA.gov is the U.S. government's official web portal to all federal, state and local government web resources and services.